FENGYUN 1C DEB, 30742

Orbit data source: Space-Track

FENGYUN 1C DEB, 30742 is space debris in SSO originally from a launch on Mon, 10 May 1999 UTC launched from the Taiyaun Space Center, China (TSC). Fengyun 1C debris stems from the Chinese weather satellite Fengyun-1C, which was intentionally destroyed by a Chinese anti-satellite missile in 2007. This event dramatically increased the amount of space debris, with thousands of trackable fragments posing hazards to satellites and human spaceflight. The Fengyun 1C debris cloud has become a focal point in discussions about space sustainability and the need for international regulations to prevent the creation of new debris.

Loading next visibility...
Identifier
30742, 1999-025ATC
Orbit
SSO
Country
Flag of CNCN / PRC
Related business
Manufacturer
Unknown
Mission
Spacecraft
Bus & Motor
Unknown
Mass
Unknown
Launch date (UTC)
1999-05-10 (27 years ago)
Launch vehicle
Unknown
Launch site
Taiyaun Space Center, China (TSC)
Object type
Payload
Rocket body
Debris
Shape & HBR
Unknown shape, 0.1 m
Radar Cross Section
Medium (>0.1 m² and <1 m²)

Expand to show TLE details & history
Last TLE update: 8 hours ago

TLE from 8 hours ago
0 FENGYUN 1C DEB
1 30742U 99025ATC 26169.63136659  .00001500  00000-0  83469-3 0  9993
2 30742  98.8522 216.4770 0072115  57.8189  93.3868 14.11226357986915
Epoch: 2026-06-18T15:09Z
TLE epoch observation values (Epoch: 2026-06-18T15:09:10.073Z)
Latitude
27.64961°
Longitude
-93.03157°
Altitude
862.007 km
Speed
7.422 km/s
True Right ascension
02h 44m 31s
True Declination
27° 30' 38"
Sunlit
Object was in daylight at epoch
Visualization orbit readout
Latitude
Unknown
Longitude
Unknown
Altitude
Unknown
Speed
Unknown
Apparent Right ascension
Unknown
Apparent Declination
Unknown
Sunlit
N/A
Visualization observer readout
Local Sidereal Time
10:03:57
Azimuth
Unknown
Elevation
Unknown
Doppler factor
Unknown
Orbital elements
Apogee altitude
904.498 km
Perigee altitude
800.212 km
Semi-major axis
7,230.492 km
Eccentricity
0.00721
Inclination
98.8522°
RAAN
216.477°
Arg. of periapsis
57.8189°
True anomaly
94.21127°
Mean anomaly
93.3868°
Eccentric anomaly
93.79908°
Mean motion
3.53014 °/min
Orbital period
101.98 mins
BSTAR
0.00083469
Loading maneuver chart data...
Computing Atmospheric mass density...

Documentation

Showing up to 5 results
|